Time,TemperatureF,DewpointF,PressureIn,WindDirection,WindDirectionDegrees,WindSpeedMPH,WindSpeedGustMPH,Humidity,HourlyPrecipIn,Conditions,Clouds,dailyrainin,SoftwareType,DateUTC
2013-01-08 00:01:00,29.6,25.1,30.16,SW,225,7.0,7.0,83,0.00,,,0.00,Wunderground v.1.15,2013-01-08 05:01:00,
2013-01-08 00:04:00,29.5,25.0,30.16,SW,219,7.0,8.0,83,0.00,,,0.00,Wunderground v.1.15,2013-01-08 05:04:00,
2013-01-08 00:08:00,29.5,25.0,30.16,SW,218,6.0,9.0,83,0.00,,,0.00,Wunderground v.1.15,2013-01-08 05:08:00,
2013-01-08 00:13:00,29.5,25.0,30.16,South,190,6.0,7.0,83,0.00,,,0.00,Wunderground v.1.15,2013-01-08 05:13:00,
2013-01-08 00:18:00,29.4,24.9,30.16,SSW,211,6.0,7.0,83,0.00,,,0.00,Wunderground v.1.15,2013-01-08 05:18:00,
2013-01-08 00:23:00,29.3,24.8,30.16,SSW,202,6.0,7.0,83,0.00,,,0.00,Wunderground v.1.15,2013-01-08 05:23:00,
2013-01-08 00:28:00,29.2,24.7,30.16,SW,222,6.0,7.0,83,0.00,,,0.00,Wunderground v.1.15,2013-01-08 05:28:00,
2013-01-08 00:34:00,29.2,24.7,30.16,SSW,205,6.0,7.0,83,0.00,,,0.00,Wunderground v.1.15,2013-01-08 05:34:00,
2013-01-08 00:39:00,29.2,24.7,30.16,SSW,203,6.0,7.0,83,0.00,,,0.00,Wunderground v.1.15,2013-01-08 05:39:00,
2013-01-08 00:44:00,29.3,24.8,30.16,SW,220,6.0,7.0,83,0.00,,,0.00,Wunderground v.1.15,2013-01-08 05:44:00,
2013-01-08 00:51:00,29.2,25.0,30.16,SSW,196,6.0,7.0,84,0.00,,,0.00,Wunderground v.1.15,2013-01-08 05:51:00,
2013-01-08 00:56:00,29.0,24.8,30.16,SW,220,5.0,7.0,84,0.00,,,0.00,Wunderground v.1.15,2013-01-08 05:56:00,
2013-01-08 01:02:00,28.9,24.7,30.16,SSW,207,4.0,5.0,84,0.00,,,0.00,Wunderground v.1.15,2013-01-08 06:02:00,
2013-01-08 01:07:00,28.9,24.7,30.16,SSW,208,4.0,6.0,84,0.00,,,0.00,Wunderground v.1.15,2013-01-08 06:07:00,
2013-01-08 01:12:00,28.8,24.6,30.16,SSW,205,4.0,7.0,84,0.00,,,0.00,Wunderground v.1.15,2013-01-08 06:12:00,
2013-01-08 01:18:00,28.7,24.5,30.16,SSW,202,4.0,7.0,84,0.00,,,0.00,Wunderground v.1.15,2013-01-08 06:18:00,
2013-01-08 01:24:00,28.7,24.5,30.16,SSW,209,4.0,5.0,84,0.00,,,0.00,Wunderground v.1.15,2013-01-08 06:24:00,
2013-01-08 01:29:00,28.5,24.3,30.16,South,184,4.0,6.0,84,0.00,,,0.00,Wunderground v.1.15,2013-01-08 06:29:00,
2013-01-08 01:35:00,28.2,24.3,30.16,SSW,200,3.0,4.0,85,0.00,,,0.00,Wunderground v.1.15,2013-01-08 06:35:00,
2013-01-08 01:41:00,28.1,24.2,30.16,SSW,198,3.0,4.0,85,0.00,,,0.00,Wunderground v.1.15,2013-01-08 06:41:00,
2013-01-08 01:46:00,28.0,24.1,30.16,SSW,196,3.0,4.0,85,0.00,,,0.00,Wunderground v.1.15,2013-01-08 06:46:00,
2013-01-08 01:51:00,27.8,23.9,30.16,South,191,3.0,4.0,85,0.00,,,0.00,Wunderground v.1.15,2013-01-08 06:51:00,
2013-01-08 01:57:00,27.7,24.1,30.16,South,188,3.0,4.0,86,0.00,,,0.00,Wunderground v.1.15,2013-01-08 06:57:00,
2013-01-08 02:02:00,27.6,24.0,30.16,South,186,3.0,3.0,86,0.00,,,0.00,Wunderground v.1.15,2013-01-08 07:02:00,
2013-01-08 02:07:00,27.5,23.9,30.16,South,185,3.0,5.0,86,0.00,,,0.00,Wunderground v.1.15,2013-01-08 07:07:00,
2013-01-08 02:12:00,27.5,23.9,30.16,SSW,192,4.0,4.0,86,0.00,,,0.00,Wunderground v.1.15,2013-01-08 07:12:00,
2013-01-08 02:18:00,27.4,23.8,30.17,South,188,4.0,4.0,86,0.00,,,0.00,Wunderground v.1.15,2013-01-08 07:18:00,
2013-01-08 02:23:00,27.3,23.7,30.16,South,179,4.0,5.0,86,0.00,,,0.00,Wunderground v.1.15,2013-01-08 07:23:00,
2013-01-08 02:28:00,27.2,23.6,30.16,SSW,196,3.0,5.0,86,0.00,,,0.00,Wunderground v.1.15,2013-01-08 07:28:00,
2013-01-08 02:33:00,27.1,23.7,30.16,South,188,3.0,3.0,87,0.00,,,0.00,Wunderground v.1.15,2013-01-08 07:33:00,
2013-01-08 02:39:00,27.0,23.6,30.16,SSW,194,3.0,6.0,87,0.00,,,0.00,Wunderground v.1.15,2013-01-08 07:39:00,
2013-01-08 02:44:00,27.0,23.6,30.16,SSW,192,3.0,3.0,87,0.00,,,0.00,Wunderground v.1.15,2013-01-08 07:44:00,
2013-01-08 02:49:00,26.9,23.5,30.16,South,188,3.0,4.0,87,0.00,,,0.00,Wunderground v.1.15,2013-01-08 07:49:00,
2013-01-08 02:54:00,26.7,23.4,30.16,South,188,3.0,3.0,87,0.00,,,0.00,Wunderground v.1.15,2013-01-08 07:54:00,
2013-01-08 02:59:00,26.6,23.3,30.17,South,189,2.0,4.0,87,0.00,,,0.00,Wunderground v.1.15,2013-01-08 07:59:00,
2013-01-08 03:05:00,26.5,23.4,30.17,SSW,192,2.0,3.0,88,0.00,,,0.00,Wunderground v.1.15,2013-01-08 08:05:00,
2013-01-08 03:10:00,26.4,23.3,30.17,South,191,2.0,3.0,88,0.00,,,0.00,Wunderground v.1.15,2013-01-08 08:10:00,
2013-01-08 03:15:00,26.2,23.1,30.17,South,190,2.0,4.0,88,0.00,,,0.00,Wunderground v.1.15,2013-01-08 08:15:00,
2013-01-08 03:21:00,26.1,23.0,30.17,South,188,2.0,4.0,88,0.00,,,0.00,Wunderground v.1.15,2013-01-08 08:21:00,
2013-01-08 03:26:00,26.0,22.9,30.17,South,188,2.0,4.0,88,0.00,,,0.00,Wunderground v.1.15,2013-01-08 08:26:00,
2013-01-08 03:31:00,25.9,22.8,30.18,South,185,3.0,4.0,88,0.00,,,0.00,Wunderground v.1.15,2013-01-08 08:31:00,
2013-01-08 03:36:00,25.8,23.0,30.18,SSW,192,3.0,4.0,89,0.00,,,0.00,Wunderground v.1.15,2013-01-08 08:36:00,
2013-01-08 03:42:00,25.8,23.0,30.18,South,188,3.0,5.0,89,0.00,,,0.00,Wunderground v.1.15,2013-01-08 08:42:00,
2013-01-08 03:47:00,25.7,22.9,30.17,South,186,3.0,5.0,89,0.00,,,0.00,Wunderground v.1.15,2013-01-08 08:47:00,
2013-01-08 03:52:00,25.6,22.8,30.17,SSW,193,3.0,3.0,89,0.00,,,0.00,Wunderground v.1.15,2013-01-08 08:52:00,
2013-01-08 03:57:00,25.6,22.8,30.17,SSW,194,3.0,4.0,89,0.00,,,0.00,Wunderground v.1.15,2013-01-08 08:57:00,
2013-01-08 04:03:00,25.5,22.7,30.17,SSW,195,3.0,4.0,89,0.00,,,0.00,Wunderground v.1.15,2013-01-08 09:03:00,
2013-01-08 04:08:00,25.5,22.7,30.17,SSW,207,3.0,5.0,89,0.00,,,0.00,Wunderground v.1.15,2013-01-08 09:08:00,
2013-01-08 04:13:00,25.4,22.6,30.18,SSW,203,3.0,3.0,89,0.00,,,0.00,Wunderground v.1.15,2013-01-08 09:13:00,
2013-01-08 04:18:00,25.4,22.6,30.18,SSW,202,3.0,3.0,89,0.00,,,0.00,Wunderground v.1.15,2013-01-08 09:18:00,
2013-01-08 04:23:00,25.3,22.5,30.18,SSW,202,2.0,3.0,89,0.00,,,0.00,Wunderground v.1.15,2013-01-08 09:23:00,
2013-01-08 04:29:00,25.2,22.7,30.17,SSW,200,2.0,4.0,90,0.00,,,0.00,Wunderground v.1.15,2013-01-08 09:29:00,
2013-01-08 04:34:00,25.2,22.7,30.17,SSW,196,3.0,3.0,90,0.00,,,0.00,Wunderground v.1.15,2013-01-08 09:34:00,
2013-01-08 04:39:00,25.2,22.7,30.17,SSW,197,3.0,4.0,90,0.00,,,0.00,Wunderground v.1.15,2013-01-08 09:39:00,
2013-01-08 04:45:00,25.2,22.7,30.18,SSW,198,3.0,3.0,90,0.00,,,0.00,Wunderground v.1.15,2013-01-08 09:45:00,
2013-01-08 04:51:00,25.2,22.7,30.18,SSW,198,2.0,2.0,90,0.00,,,0.00,Wunderground v.1.15,2013-01-08 09:51:00,
2013-01-08 04:57:00,25.1,22.6,30.18,SSW,196,2.0,4.0,90,0.00,,,0.00,Wunderground v.1.15,2013-01-08 09:57:00,
2013-01-08 05:02:00,25.1,22.6,30.18,SSW,196,2.0,3.0,90,0.00,,,0.00,Wunderground v.1.15,2013-01-08 10:02:00,
2013-01-08 05:07:00,25.0,22.5,30.18,SSW,195,2.0,4.0,90,0.00,,,0.00,Wunderground v.1.15,2013-01-08 10:07:00,
2013-01-08 05:12:00,25.0,22.5,30.18,SSW,198,3.0,4.0,90,0.00,,,0.00,Wunderground v.1.15,2013-01-08 10:12:00,
2013-01-08 05:18:00,25.0,22.5,30.17,SSW,198,2.0,4.0,90,0.00,,,0.00,Wunderground v.1.15,2013-01-08 10:18:00,
2013-01-08 05:23:00,24.9,22.4,30.17,SSW,196,2.0,2.0,90,0.00,,,0.00,Wunderground v.1.15,2013-01-08 10:23:00,
2013-01-08 05:28:00,24.8,22.3,30.17,SSW,196,2.0,3.0,90,0.00,,,0.00,Wunderground v.1.15,2013-01-08 10:28:00,
2013-01-08 05:33:00,24.8,22.3,30.17,SSW,197,3.0,3.0,90,0.00,,,0.00,Wunderground v.1.15,2013-01-08 10:33:00,
2013-01-08 05:38:00,24.8,22.5,30.18,SSW,197,2.0,3.0,91,0.00,,,0.00,Wunderground v.1.15,2013-01-08 10:38:00,
2013-01-08 05:44:00,24.8,22.5,30.18,SSW,200,2.0,3.0,91,0.00,,,0.00,Wunderground v.1.15,2013-01-08 10:44:00,
2013-01-08 05:49:00,24.7,22.4,30.18,SSW,205,3.0,4.0,91,0.00,,,0.00,Wunderground v.1.15,2013-01-08 10:49:00,
2013-01-08 05:54:00,24.7,22.4,30.18,SSW,205,3.0,3.0,91,0.00,,,0.00,Wunderground v.1.15,2013-01-08 10:54:00,
2013-01-08 05:59:00,24.7,22.4,30.18,SSW,205,2.0,3.0,91,0.00,,,0.00,Wunderground v.1.15,2013-01-08 10:59:00,
2013-01-08 06:04:00,24.7,22.4,30.18,SSW,209,2.0,5.0,91,0.00,,,0.00,Wunderground v.1.15,2013-01-08 11:04:00,
2013-01-08 06:10:00,24.7,22.4,30.18,SSW,209,2.0,2.0,91,0.00,,,0.00,Wunderground v.1.15,2013-01-08 11:10:00,
2013-01-08 06:15:00,24.7,22.4,30.18,SSW,209,1.0,3.0,91,0.00,,,0.00,Wunderground v.1.15,2013-01-08 11:15:00,
2013-01-08 06:20:00,24.7,22.4,30.18,SSW,209,1.0,1.0,91,0.00,,,0.00,Wunderground v.1.15,2013-01-08 11:20:00,
2013-01-08 06:25:00,24.8,22.5,30.18,SSW,209,1.0,2.0,91,0.00,,,0.00,Wunderground v.1.15,2013-01-08 11:25:00,
2013-01-08 06:30:00,24.8,22.5,30.18,SSW,209,1.0,1.0,91,0.00,,,0.00,Wunderground v.1.15,2013-01-08 11:30:00,
2013-01-08 06:36:00,24.8,22.5,30.18,SSW,209,1.0,3.0,91,0.00,,,0.00,Wunderground v.1.15,2013-01-08 11:36:00,
2013-01-08 06:41:00,24.8,22.5,30.18,SSW,209,1.0,2.0,91,0.00,,,0.00,Wunderground v.1.15,2013-01-08 11:41:00,
2013-01-08 06:47:00,24.8,22.5,30.18,SSW,209,1.0,2.0,91,0.00,,,0.00,Wunderground v.1.15,2013-01-08 11:47:00,
2013-01-08 06:52:00,24.7,22.4,30.19,SSW,209,1.0,1.0,91,0.00,,,0.00,Wunderground v.1.15,2013-01-08 11:52:00,
2013-01-08 06:57:00,24.7,22.4,30.19,SSW,209,1.0,1.0,91,0.00,,,0.00,Wunderground v.1.15,2013-01-08 11:57:00,
2013-01-08 07:02:00,24.7,22.4,30.19,SSW,209,1.0,2.0,91,0.00,,,0.00,Wunderground v.1.15,2013-01-08 12:02:00,
2013-01-08 07:08:00,24.5,22.2,30.19,SSW,209,1.0,2.0,91,0.00,,,0.00,Wunderground v.1.15,2013-01-08 12:08:00,
2013-01-08 07:13:00,24.4,22.2,30.19,SSW,208,2.0,3.0,91,0.00,,,0.00,Wunderground v.1.15,2013-01-08 12:13:00,
2013-01-08 07:19:00,24.4,22.2,30.20,SSW,208,2.0,3.0,91,0.00,,,0.00,Wunderground v.1.15,2013-01-08 12:19:00,
2013-01-08 07:25:00,24.3,22.1,30.20,SSW,208,2.0,2.0,91,0.00,,,0.00,Wunderground v.1.15,2013-01-08 12:25:00,
2013-01-08 07:30:00,24.3,22.1,30.20,SSW,208,1.0,1.0,91,0.00,,,0.00,Wunderground v.1.15,2013-01-08 12:30:00,
2013-01-08 07:35:00,24.2,22.0,30.20,SSW,208,1.0,3.0,91,0.00,,,0.00,Wunderground v.1.15,2013-01-08 12:35:00,
2013-01-08 07:40:00,24.2,22.0,30.20,SSW,207,1.0,3.0,91,0.00,,,0.00,Wunderground v.1.15,2013-01-08 12:40:00,
2013-01-08 07:45:00,24.1,21.9,30.21,South,187,2.0,4.0,91,0.00,,,0.00,Wunderground v.1.15,2013-01-08 12:45:00,
2013-01-08 07:51:00,24.0,21.8,30.21,South,188,2.0,2.0,91,0.00,,,0.00,Wunderground v.1.15,2013-01-08 12:51:00,
2013-01-08 07:56:00,24.0,21.8,30.21,South,188,2.0,2.0,91,0.00,,,0.00,Wunderground v.1.15,2013-01-08 12:56:00,
2013-01-08 08:02:00,24.0,21.8,30.22,South,188,1.0,1.0,91,0.00,,,0.00,Wunderground v.1.15,2013-01-08 13:02:00,
2013-01-08 08:07:00,24.0,21.8,30.22,South,188,1.0,2.0,91,0.00,,,0.00,Wunderground v.1.15,2013-01-08 13:07:00,
2013-01-08 08:12:00,24.0,21.8,30.22,South,188,1.0,2.0,91,0.00,,,0.00,Wunderground v.1.15,2013-01-08 13:12:00,
2013-01-08 08:17:00,24.1,21.9,30.23,SSW,197,3.0,5.0,91,0.00,,,0.00,Wunderground v.1.15,2013-01-08 13:17:00,
2013-01-08 08:23:00,24.1,21.9,30.23,SSW,208,4.0,4.0,91,0.00,,,0.00,Wunderground v.1.15,2013-01-08 13:23:00,
2013-01-08 08:28:00,24.2,22.0,30.23,SSW,203,4.0,4.0,91,0.00,,,0.00,Wunderground v.1.15,2013-01-08 13:28:00,
2013-01-08 08:33:00,24.2,22.0,30.23,SSW,202,4.0,6.0,91,0.00,,,0.00,Wunderground v.1.15,2013-01-08 13:33:00,
2013-01-08 08:38:00,24.3,22.1,30.23,SSW,207,4.0,6.0,91,0.00,,,0.00,Wunderground v.1.15,2013-01-08 13:38:00,
2013-01-08 08:44:00,24.4,22.2,30.23,SSW,201,3.0,4.0,91,0.00,,,0.00,Wunderground v.1.15,2013-01-08 13:44:00,
2013-01-08 08:49:00,24.5,22.2,30.23,South,189,3.0,6.0,91,0.00,,,0.00,Wunderground v.1.15,2013-01-08 13:49:00,
2013-01-08 08:54:00,24.7,22.4,30.24,SSW,202,3.0,5.0,91,0.00,,,0.00,Wunderground v.1.15,2013-01-08 13:54:00,
2013-01-08 09:01:00,24.8,22.5,30.24,SSW,209,3.0,4.0,91,0.00,,,0.00,Wunderground v.1.15,2013-01-08 14:01:00,
2013-01-08 09:06:00,24.8,22.3,30.24,SSW,209,4.0,5.0,90,0.00,,,0.00,Wunderground v.1.15,2013-01-08 14:06:00,
2013-01-08 09:12:00,25.1,22.6,30.24,SSW,197,4.0,4.0,90,0.00,,,0.00,Wunderground v.1.15,2013-01-08 14:12:00,
2013-01-08 09:17:00,25.1,22.6,30.24,South,190,4.0,5.0,90,0.00,,,0.00,Wunderground v.1.15,2013-01-08 14:17:00,
2013-01-08 09:22:00,25.2,22.7,30.24,SSW,194,4.0,4.0,90,0.00,,,0.00,Wunderground v.1.15,2013-01-08 14:22:00,
2013-01-08 09:27:00,25.5,23.0,30.24,SSW,195,4.0,5.0,90,0.00,,,0.00,Wunderground v.1.15,2013-01-08 14:27:00,
2013-01-08 09:33:00,25.5,22.7,30.24,SSW,194,4.0,4.0,89,0.00,,,0.00,Wunderground v.1.15,2013-01-08 14:33:00,
2013-01-08 09:38:00,25.7,22.9,30.24,SSW,210,3.0,4.0,89,0.00,,,0.00,Wunderground v.1.15,2013-01-08 14:38:00,
2013-01-08 09:44:00,25.9,23.1,30.25,SSW,205,3.0,3.0,89,0.00,,,0.00,Wunderground v.1.15,2013-01-08 14:44:00,
2013-01-08 09:49:00,26.3,23.5,30.25,SSW,202,3.0,3.0,89,0.00,,,0.00,Wunderground v.1.15,2013-01-08 14:49:00,
2013-01-08 09:54:00,26.6,23.5,30.25,SSW,202,2.0,4.0,88,0.00,,,0.00,Wunderground v.1.15,2013-01-08 14:54:00,
2013-01-08 09:59:00,26.7,23.6,30.25,South,189,3.0,4.0,88,0.00,,,0.00,Wunderground v.1.15,2013-01-08 14:59:00,
2013-01-08 10:05:00,27.0,23.6,30.25,SSW,199,3.0,6.0,87,0.00,,,0.00,Wunderground v.1.15,2013-01-08 15:05:00,
2013-01-08 10:11:00,27.2,23.8,30.25,SSW,192,3.0,3.0,87,0.00,,,0.00,Wunderground v.1.15,2013-01-08 15:11:00,
2013-01-08 10:16:00,27.5,24.1,30.25,SSW,199,3.0,4.0,87,0.00,,,0.00,Wunderground v.1.15,2013-01-08 15:16:00,
2013-01-08 10:22:00,27.8,24.2,30.25,SSW,198,4.0,5.0,86,0.00,,,0.00,Wunderground v.1.15,2013-01-08 15:22:00,
2013-01-08 10:27:00,28.0,24.4,30.25,South,186,4.0,6.0,86,0.00,,,0.00,Wunderground v.1.15,2013-01-08 15:27:00,
2013-01-08 10:32:00,28.3,24.4,30.25,South,182,4.0,4.0,85,0.00,,,0.00,Wunderground v.1.15,2013-01-08 15:32:00,
2013-01-08 10:38:00,28.7,24.8,30.25,SSW,200,4.0,5.0,85,0.00,,,0.00,Wunderground v.1.15,2013-01-08 15:38:00,
2013-01-08 10:44:00,29.1,24.9,30.25,SSW,205,3.0,4.0,84,0.00,,,0.00,Wunderground v.1.15,2013-01-08 15:44:00,
2013-01-08 10:50:00,29.7,25.2,30.25,South,179,2.0,4.0,83,0.00,,,0.00,Wunderground v.1.15,2013-01-08 15:50:00,
2013-01-08 10:55:00,29.8,25.3,30.25,South,190,2.0,4.0,83,0.00,,,0.00,Wunderground v.1.15,2013-01-08 15:55:00,
2013-01-08 11:01:00,29.9,25.1,30.25,South,184,3.0,4.0,82,0.00,,,0.00,Wunderground v.1.15,2013-01-08 16:01:00,
2013-01-08 11:06:00,30.1,25.3,30.25,SSW,198,3.0,4.0,82,0.00,,,0.00,Wunderground v.1.15,2013-01-08 16:06:00,
2013-01-08 11:12:00,30.5,25.7,30.25,SSW,198,3.0,4.0,82,0.00,,,0.00,Wunderground v.1.15,2013-01-08 16:12:00,
2013-01-08 11:17:00,30.4,25.3,30.25,South,186,3.0,7.0,81,0.00,,,0.00,Wunderground v.1.15,2013-01-08 16:17:00,
2013-01-08 11:22:00,30.5,25.4,30.25,South,186,4.0,7.0,81,0.00,,,0.00,Wunderground v.1.15,2013-01-08 16:22:00,
2013-01-08 11:27:00,30.9,25.8,30.25,South,185,4.0,7.0,81,0.00,,,0.00,Wunderground v.1.15,2013-01-08 16:27:00,
2013-01-08 11:33:00,30.9,25.5,30.25,SSW,197,4.0,6.0,80,0.00,,,0.00,Wunderground v.1.15,2013-01-08 16:33:00,
2013-01-08 11:38:00,31.2,26.0,30.25,South,179,4.0,6.0,81,0.00,,,0.00,Wunderground v.1.15,2013-01-08 16:38:00,
2013-01-08 11:43:00,31.1,25.7,30.25,SSE,167,4.0,6.0,80,0.00,,,0.00,Wunderground v.1.15,2013-01-08 16:43:00,
2013-01-08 11:49:00,31.1,25.7,30.24,SSW,194,5.0,7.0,80,0.00,,,0.00,Wunderground v.1.15,2013-01-08 16:49:00,
2013-01-08 11:54:00,31.1,25.7,30.24,SSW,201,5.0,7.0,80,0.00,,,0.00,Wunderground v.1.15,2013-01-08 16:54:00,
2013-01-08 11:59:00,31.3,25.8,30.24,SSW,192,5.0,8.0,80,0.00,,,0.00,Wunderground v.1.15,2013-01-08 16:59:00,
2013-01-08 12:05:00,31.5,26.0,30.24,SSW,209,5.0,5.0,80,0.00,,,0.00,Wunderground v.1.15,2013-01-08 17:05:00,
2013-01-08 12:10:00,31.4,25.9,30.24,SSE,165,5.0,9.0,80,0.00,,,0.00,Wunderground v.1.15,2013-01-08 17:10:00,
2013-01-08 12:15:00,31.4,25.9,30.24,South,181,6.0,9.0,80,0.00,,,0.00,Wunderground v.1.15,2013-01-08 17:15:00,
2013-01-08 12:20:00,31.8,26.0,30.23,SSW,196,4.0,4.0,79,0.00,,,0.00,Wunderground v.1.15,2013-01-08 17:20:00,
2013-01-08 12:26:00,31.7,25.9,30.23,South,181,4.0,7.0,79,0.00,,,0.00,Wunderground v.1.15,2013-01-08 17:26:00,
2013-01-08 12:31:00,31.8,26.0,30.23,SSE,160,5.0,5.0,79,0.00,,,0.00,Wunderground v.1.15,2013-01-08 17:31:00,
2013-01-08 12:37:00,32.2,26.4,30.23,SSE,156,5.0,6.0,79,0.00,,,0.00,Wunderground v.1.15,2013-01-08 17:37:00,
2013-01-08 12:42:00,32.3,26.2,30.23,South,185,4.0,5.0,78,0.00,,,0.00,Wunderground v.1.15,2013-01-08 17:42:00,
2013-01-08 12:47:00,32.3,26.2,30.23,SSW,207,3.0,5.0,78,0.00,,,0.00,Wunderground v.1.15,2013-01-08 17:47:00,
2013-01-08 12:52:00,32.4,26.3,30.22,SE,137,3.0,6.0,78,0.00,,,0.00,Wunderground v.1.15,2013-01-08 17:52:00,
2013-01-08 12:58:00,32.4,26.3,30.22,SSE,167,4.0,6.0,78,0.00,,,0.00,Wunderground v.1.15,2013-01-08 17:58:00,
2013-01-08 13:03:00,32.3,26.2,30.22,South,181,4.0,7.0,78,0.00,,,0.00,Wunderground v.1.15,2013-01-08 18:03:00,
2013-01-08 13:08:00,32.4,26.3,30.22,SSW,198,5.0,7.0,78,0.00,,,0.00,Wunderground v.1.15,2013-01-08 18:08:00,
2013-01-08 13:14:00,32.6,26.5,30.22,South,172,4.0,4.0,78,0.00,,,0.00,Wunderground v.1.15,2013-01-08 18:14:00,
2013-01-08 13:19:00,32.9,26.8,30.22,SSE,148,3.0,5.0,78,0.00,,,0.00,Wunderground v.1.15,2013-01-08 18:19:00,
2013-01-08 13:24:00,32.8,26.4,30.22,South,190,4.0,7.0,77,0.00,,,0.00,Wunderground v.1.15,2013-01-08 18:24:00,
2013-01-08 13:30:00,33.1,27.0,30.22,SSW,204,5.0,7.0,78,0.00,,,0.00,Wunderground v.1.15,2013-01-08 18:30:00,
2013-01-08 13:35:00,33.6,26.8,30.22,South,184,3.0,5.0,76,0.00,,,0.00,Wunderground v.1.15,2013-01-08 18:35:00,
2013-01-08 13:40:00,33.5,26.7,30.22,SSW,202,3.0,5.0,76,0.00,,,0.00,Wunderground v.1.15,2013-01-08 18:40:00,
2013-01-08 13:45:00,33.8,27.0,30.22,SSW,206,4.0,7.0,76,0.00,,,0.00,Wunderground v.1.15,2013-01-08 18:45:00,
2013-01-08 13:51:00,33.7,26.9,30.22,South,185,5.0,7.0,76,0.00,,,0.00,Wunderground v.1.15,2013-01-08 18:51:00,
2013-01-08 13:56:00,33.9,27.1,30.22,SSE,158,6.0,8.0,76,0.00,,,0.00,Wunderground v.1.15,2013-01-08 18:56:00,
2013-01-08 14:02:00,34.2,27.4,30.22,SSE,158,5.0,7.0,76,0.00,,,0.00,Wunderground v.1.15,2013-01-08 19:02:00,
2013-01-08 14:07:00,34.6,27.5,30.22,SSE,152,4.0,7.0,75,0.00,,,0.00,Wunderground v.1.15,2013-01-08 19:07:00,
2013-01-08 14:12:00,34.9,27.8,30.22,SSW,196,3.0,7.0,75,0.00,,,0.00,Wunderground v.1.15,2013-01-08 19:12:00,
2013-01-08 14:18:00,35.2,28.1,30.22,SSW,201,4.0,7.0,75,0.00,,,0.00,Wunderground v.1.15,2013-01-08 19:18:00,
2013-01-08 14:23:00,35.2,28.1,30.22,SSW,195,5.0,6.0,75,0.00,,,0.00,Wunderground v.1.15,2013-01-08 19:23:00,
2013-01-08 14:28:00,35.2,27.7,30.22,South,175,5.0,10.0,74,0.00,,,0.00,Wunderground v.1.15,2013-01-08 19:28:00,
2013-01-08 14:33:00,35.5,28.0,30.22,SSE,156,5.0,6.0,74,0.00,,,0.00,Wunderground v.1.15,2013-01-08 19:33:00,
2013-01-08 14:38:00,35.7,28.2,30.23,SSW,200,4.0,6.0,74,0.00,,,0.00,Wunderground v.1.15,2013-01-08 19:38:00,
2013-01-08 14:44:00,36.1,28.6,30.22,SE,136,3.0,6.0,74,0.00,,,0.00,Wunderground v.1.15,2013-01-08 19:44:00,
2013-01-08 14:49:00,36.0,28.2,30.23,SE,134,4.0,6.0,73,0.00,,,0.00,Wunderground v.1.15,2013-01-08 19:49:00,
2013-01-08 14:55:00,36.2,28.4,30.23,SE,128,4.0,5.0,73,0.00,,,0.00,Wunderground v.1.15,2013-01-08 19:55:00,
2013-01-08 15:01:00,36.3,28.5,30.23,SE,134,4.0,4.0,73,0.00,,,0.00,Wunderground v.1.15,2013-01-08 20:01:00,
2013-01-08 15:07:00,36.6,28.4,30.22,SSE,148,3.0,4.0,72,0.00,,,0.00,Wunderground v.1.15,2013-01-08 20:07:00,
2013-01-08 15:12:00,37.0,28.8,30.22,SE,146,2.0,5.0,72,0.00,,,0.00,Wunderground v.1.15,2013-01-08 20:12:00,
2013-01-08 15:17:00,37.1,28.9,30.22,ESE,121,2.0,5.0,72,0.00,,,0.00,Wunderground v.1.15,2013-01-08 20:17:00,
2013-01-08 15:22:00,37.2,29.0,30.23,SE,133,3.0,3.0,72,0.00,,,0.00,Wunderground v.1.15,2013-01-08 20:22:00,
2013-01-08 15:27:00,37.4,29.2,30.22,SSE,151,3.0,3.0,72,0.00,,,0.00,Wunderground v.1.15,2013-01-08 20:27:00,
2013-01-08 15:33:00,37.4,28.9,30.22,SE,146,3.0,5.0,71,0.00,,,0.00,Wunderground v.1.15,2013-01-08 20:33:00,
2013-01-08 15:38:00,37.5,28.9,30.22,SE,144,3.0,6.0,71,0.00,,,0.00,Wunderground v.1.15,2013-01-08 20:38:00,
2013-01-08 15:43:00,37.5,28.9,30.22,SSE,165,3.0,3.0,71,0.00,,,0.00,Wunderground v.1.15,2013-01-08 20:43:00,
2013-01-08 15:48:00,37.5,28.9,30.22,SE,140,4.0,7.0,71,0.00,,,0.00,Wunderground v.1.15,2013-01-08 20:48:00,
2013-01-08 15:54:00,37.4,28.9,30.22,SSE,154,4.0,6.0,71,0.00,,,0.00,Wunderground v.1.15,2013-01-08 20:54:00,
2013-01-08 15:59:00,37.4,28.9,30.23,SE,126,4.0,7.0,71,0.00,,,0.00,Wunderground v.1.15,2013-01-08 20:59:00,
2013-01-08 16:04:00,37.5,28.9,30.23,SSE,157,4.0,7.0,71,0.00,,,0.00,Wunderground v.1.15,2013-01-08 21:04:00,
2013-01-08 16:10:00,37.4,28.9,30.23,South,175,4.0,6.0,71,0.00,,,0.00,Wunderground v.1.15,2013-01-08 21:10:00,
2013-01-08 16:16:00,37.5,28.9,30.23,SSE,148,4.0,6.0,71,0.00,,,0.00,Wunderground v.1.15,2013-01-08 21:16:00,
2013-01-08 16:21:00,37.5,28.9,30.23,SSE,164,4.0,5.0,71,0.00,,,0.00,Wunderground v.1.15,2013-01-08 21:21:00,
2013-01-08 16:27:00,37.3,28.8,30.23,SSW,194,5.0,5.0,71,0.00,,,0.00,Wunderground v.1.15,2013-01-08 21:27:00,
2013-01-08 16:32:00,37.1,28.6,30.23,SW,216,5.0,10.0,71,0.00,,,0.00,Wunderground v.1.15,2013-01-08 21:32:00,
2013-01-08 16:37:00,36.8,28.6,30.23,South,182,7.0,10.0,72,0.00,,,0.00,Wunderground v.1.15,2013-01-08 21:37:00,
2013-01-08 16:42:00,36.7,28.5,30.23,SSE,157,7.0,7.0,72,0.00,,,0.00,Wunderground v.1.15,2013-01-08 21:42:00,
2013-01-08 16:48:00,36.5,28.7,30.23,South,172,5.0,7.0,73,0.00,,,0.00,Wunderground v.1.15,2013-01-08 21:48:00,
2013-01-08 16:53:00,36.4,28.6,30.23,SSE,159,4.0,7.0,73,0.00,,,0.00,Wunderground v.1.15,2013-01-08 21:53:00,
2013-01-08 16:58:00,36.2,28.4,30.22,SSW,204,5.0,8.0,73,0.00,,,0.00,Wunderground v.1.15,2013-01-08 21:58:00,
2013-01-08 17:03:00,36.0,28.2,30.22,SSW,194,5.0,5.0,73,0.00,,,0.00,Wunderground v.1.15,2013-01-08 22:03:00,
2013-01-08 17:09:00,35.7,28.2,30.23,SSW,200,4.0,6.0,74,0.00,,,0.00,Wunderground v.1.15,2013-01-08 22:09:00,
2013-01-08 17:14:00,35.5,28.0,30.23,SSW,209,5.0,7.0,74,0.00,,,0.00,Wunderground v.1.15,2013-01-08 22:14:00,
2013-01-08 17:19:00,35.3,28.2,30.23,South,177,5.0,7.0,75,0.00,,,0.00,Wunderground v.1.15,2013-01-08 22:19:00,
2013-01-08 17:24:00,35.2,28.1,30.23,SSW,196,5.0,6.0,75,0.00,,,0.00,Wunderground v.1.15,2013-01-08 22:24:00,
2013-01-08 17:29:00,35.0,28.2,30.23,SSW,193,5.0,7.0,76,0.00,,,0.00,Wunderground v.1.15,2013-01-08 22:29:00,
2013-01-08 17:35:00,34.8,28.0,30.23,SSW,199,5.0,5.0,76,0.00,,,0.00,Wunderground v.1.15,2013-01-08 22:35:00,
2013-01-08 17:40:00,34.6,28.1,30.23,South,190,4.0,4.0,77,0.00,,,0.00,Wunderground v.1.15,2013-01-08 22:40:00,
2013-01-08 17:45:00,34.4,27.9,30.23,South,172,4.0,5.0,77,0.00,,,0.00,Wunderground v.1.15,2013-01-08 22:45:00,
2013-01-08 17:51:00,34.2,27.7,30.23,South,182,3.0,3.0,77,0.00,,,0.00,Wunderground v.1.15,2013-01-08 22:51:00,
2013-01-08 17:56:00,34.0,27.9,30.23,SSE,163,3.0,4.0,78,0.00,,,0.00,Wunderground v.1.15,2013-01-08 22:56:00,
2013-01-08 18:02:00,33.9,27.8,30.23,SSE,163,3.0,4.0,78,0.00,,,0.00,Wunderground v.1.15,2013-01-08 23:02:00,
2013-01-08 18:07:00,33.8,28.0,30.23,South,190,3.0,4.0,79,0.00,,,0.00,Wunderground v.1.15,2013-01-08 23:07:00,
2013-01-08 18:13:00,33.7,27.9,30.22,South,180,3.0,5.0,79,0.00,,,0.00,Wunderground v.1.15,2013-01-08 23:13:00,
2013-01-08 18:18:00,33.6,27.8,30.22,South,180,2.0,5.0,79,0.00,,,0.00,Wunderground v.1.15,2013-01-08 23:18:00,
2013-01-08 18:23:00,33.6,28.1,30.22,South,175,1.0,3.0,80,0.00,,,0.00,Wunderground v.1.15,2013-01-08 23:23:00,
2013-01-08 18:28:00,33.5,28.0,30.22,South,172,1.0,3.0,80,0.00,,,0.00,Wunderground v.1.15,2013-01-08 23:28:00,
2013-01-08 18:34:00,33.6,28.1,30.23,South,174,2.0,3.0,80,0.00,,,0.00,Wunderground v.1.15,2013-01-08 23:34:00,
2013-01-08 18:39:00,33.4,27.9,30.23,South,176,1.0,3.0,80,0.00,,,0.00,Wunderground v.1.15,2013-01-08 23:39:00,
2013-01-08 18:44:00,33.3,27.8,30.23,South,176,1.0,3.0,80,0.00,,,0.00,Wunderground v.1.15,2013-01-08 23:44:00,
2013-01-08 18:49:00,33.2,28.0,30.23,South,182,2.0,3.0,81,0.00,,,0.00,Wunderground v.1.15,2013-01-08 23:49:00,
2013-01-08 18:55:00,33.0,27.8,30.23,South,188,3.0,4.0,81,0.00,,,0.00,Wunderground v.1.15,2013-01-08 23:55:00,
2013-01-08 19:00:00,32.9,28.0,30.23,SSW,192,3.0,5.0,82,0.00,,,0.00,Wunderground v.1.15,2013-01-09 00:00:00,
2013-01-08 19:06:00,32.8,27.9,30.23,South,186,3.0,5.0,82,0.00,,,0.00,Wunderground v.1.15,2013-01-09 00:06:00,
2013-01-08 19:12:00,32.6,27.7,30.23,South,184,2.0,4.0,82,0.00,,,0.00,Wunderground v.1.15,2013-01-09 00:12:00,
2013-01-08 19:17:00,32.6,27.7,30.23,South,184,2.0,4.0,82,0.00,,,0.00,Wunderground v.1.15,2013-01-09 00:17:00,
2013-01-08 19:23:00,32.4,27.8,30.22,South,183,1.0,3.0,83,0.00,,,0.00,Wunderground v.1.15,2013-01-09 00:23:00,
2013-01-08 19:28:00,32.3,27.7,30.22,SSE,165,2.0,3.0,83,0.00,,,0.00,Wunderground v.1.15,2013-01-09 00:28:00,
2013-01-08 19:33:00,32.1,27.5,30.22,SSE,165,2.0,2.0,83,0.00,,,0.00,Wunderground v.1.15,2013-01-09 00:33:00,
2013-01-08 19:38:00,32.1,27.8,30.22,SSE,165,1.0,3.0,84,0.00,,,0.00,Wunderground v.1.15,2013-01-09 00:38:00,
2013-01-08 19:44:00,32.1,27.8,30.22,SSE,165,1.0,3.0,84,0.00,,,0.00,Wunderground v.1.15,2013-01-09 00:44:00,
2013-01-08 19:49:00,32.0,27.7,30.22,SSE,165,1.0,3.0,84,0.00,,,0.00,Wunderground v.1.15,2013-01-09 00:49:00,
2013-01-08 19:54:00,31.7,27.4,30.22,SSE,165,1.0,1.0,84,0.00,,,0.00,Wunderground v.1.15,2013-01-09 00:54:00,
2013-01-08 19:59:00,31.6,27.6,30.22,SSE,150,1.0,5.0,85,0.00,,,0.00,Wunderground v.1.15,2013-01-09 00:59:00,
2013-01-08 20:05:00,31.6,27.6,30.22,SSE,161,2.0,3.0,85,0.00,,,0.00,Wunderground v.1.15,2013-01-09 01:05:00,
2013-01-08 20:10:00,31.6,27.6,30.22,SSE,163,2.0,2.0,85,0.00,,,0.00,Wunderground v.1.15,2013-01-09 01:10:00,
2013-01-08 20:15:00,31.6,27.6,30.23,South,177,2.0,4.0,85,0.00,,,0.00,Wunderground v.1.15,2013-01-09 01:15:00,
2013-01-08 20:20:00,31.7,27.7,30.23,SE,129,2.0,2.0,85,0.00,,,0.00,Wunderground v.1.15,2013-01-09 01:20:00,
2013-01-08 20:26:00,31.7,27.7,30.23,SSE,148,2.0,2.0,85,0.00,,,0.00,Wunderground v.1.15,2013-01-09 01:26:00,
2013-01-08 20:31:00,31.7,27.7,30.22,SSE,150,2.0,3.0,85,0.00,,,0.00,Wunderground v.1.15,2013-01-09 01:31:00,
2013-01-08 20:36:00,31.7,27.7,30.22,SSE,149,3.0,4.0,85,0.00,,,0.00,Wunderground v.1.15,2013-01-09 01:36:00,
2013-01-08 20:42:00,31.5,27.5,30.22,SE,139,2.0,2.0,85,0.00,,,0.00,Wunderground v.1.15,2013-01-09 01:42:00,
2013-01-08 20:47:00,31.4,27.4,30.22,SE,144,2.0,2.0,85,0.00,,,0.00,Wunderground v.1.15,2013-01-09 01:47:00,
2013-01-08 20:52:00,31.3,27.3,30.22,SE,143,2.0,3.0,85,0.00,,,0.00,Wunderground v.1.15,2013-01-09 01:52:00,
2013-01-08 20:58:00,31.1,27.1,30.21,South,184,1.0,3.0,85,0.00,,,0.00,Wunderground v.1.15,2013-01-09 01:58:00,
2013-01-08 21:03:00,31.0,27.3,30.21,South,176,2.0,4.0,86,0.00,,,0.00,Wunderground v.1.15,2013-01-09 02:03:00,
2013-01-08 21:08:00,30.9,27.2,30.20,SE,143,2.0,4.0,86,0.00,,,0.00,Wunderground v.1.15,2013-01-09 02:08:00,
2013-01-08 21:14:00,30.8,27.1,30.20,SSE,148,2.0,2.0,86,0.00,,,0.00,Wunderground v.1.15,2013-01-09 02:14:00,
2013-01-08 21:19:00,30.8,27.1,30.20,SSE,150,1.0,3.0,86,0.00,,,0.00,Wunderground v.1.15,2013-01-09 02:19:00,
2013-01-08 21:24:00,30.7,27.0,30.19,SSE,148,2.0,2.0,86,0.00,,,0.00,Wunderground v.1.15,2013-01-09 02:24:00,
2013-01-08 21:29:00,30.6,26.9,30.20,SSE,148,1.0,2.0,86,0.00,,,0.00,Wunderground v.1.15,2013-01-09 02:29:00,
2013-01-08 21:35:00,30.5,27.1,30.20,SSE,148,1.0,1.0,87,0.00,,,0.00,Wunderground v.1.15,2013-01-09 02:35:00,
2013-01-08 21:40:00,30.5,27.1,30.19,SSE,148,0.0,0.0,87,0.00,,,0.00,Wunderground v.1.15,2013-01-09 02:40:00,
2013-01-08 21:46:00,30.5,27.1,30.20,SSE,148,0.0,0.0,87,0.00,,,0.00,Wunderground v.1.15,2013-01-09 02:46:00,
2013-01-08 21:51:00,30.2,26.8,30.20,SSE,148,0.0,0.0,87,0.00,,,0.00,Wunderground v.1.15,2013-01-09 02:51:00,
2013-01-08 21:56:00,29.9,26.8,30.19,SSE,148,1.0,2.0,88,0.00,,,0.00,Wunderground v.1.15,2013-01-09 02:56:00,
2013-01-08 22:02:00,29.8,26.7,30.20,SSE,148,1.0,1.0,88,0.00,,,0.00,Wunderground v.1.15,2013-01-09 03:02:00,
2013-01-08 22:07:00,29.8,26.7,30.19,SSE,148,0.0,1.0,88,0.00,,,0.00,Wunderground v.1.15,2013-01-09 03:07:00,
2013-01-08 22:12:00,29.6,26.5,30.19,SSE,148,1.0,1.0,88,0.00,,,0.00,Wunderground v.1.15,2013-01-09 03:12:00,
2013-01-08 22:17:00,29.5,26.7,30.19,SSE,148,1.0,2.0,89,0.00,,,0.00,Wunderground v.1.15,2013-01-09 03:17:00,
2013-01-08 22:23:00,29.5,26.7,30.19,SSE,148,1.0,1.0,89,0.00,,,0.00,Wunderground v.1.15,2013-01-09 03:23:00,
2013-01-08 22:28:00,29.5,26.7,30.20,SSE,148,0.0,2.0,89,0.00,,,0.00,Wunderground v.1.15,2013-01-09 03:28:00,
2013-01-08 22:33:00,29.4,26.6,30.19,SSE,148,0.0,1.0,89,0.00,,,0.00,Wunderground v.1.15,2013-01-09 03:33:00,
2013-01-08 22:38:00,29.4,26.6,30.19,SSE,148,0.0,1.0,89,0.00,,,0.00,Wunderground v.1.15,2013-01-09 03:38:00,
2013-01-08 22:44:00,29.3,26.5,30.19,SSE,148,0.0,1.0,89,0.00,,,0.00,Wunderground v.1.15,2013-01-09 03:44:00,
2013-01-08 22:49:00,29.4,26.6,30.19,SSE,148,0.0,1.0,89,0.00,,,0.00,Wunderground v.1.15,2013-01-09 03:49:00,
2013-01-08 22:54:00,29.3,26.5,30.18,SSE,148,0.0,0.0,89,0.00,,,0.00,Wunderground v.1.15,2013-01-09 03:54:00,
2013-01-08 23:00:00,29.2,26.6,30.18,SSE,148,0.0,0.0,90,0.00,,,0.00,Wunderground v.1.15,2013-01-09 04:00:00,
2013-01-08 23:06:00,28.9,26.3,30.18,SSE,148,0.0,0.0,90,0.00,,,0.00,Wunderground v.1.15,2013-01-09 04:06:00,
2013-01-08 23:12:00,28.9,26.3,30.18,SSE,148,0.0,0.0,90,0.00,,,0.00,Wunderground v.1.15,2013-01-09 04:12:00,
2013-01-08 23:17:00,28.8,26.2,30.18,SSE,148,0.0,0.0,90,0.00,,,0.00,Wunderground v.1.15,2013-01-09 04:17:00,
2013-01-08 23:22:00,29.1,26.5,30.18,SSE,148,0.0,0.0,90,0.00,,,0.00,Wunderground v.1.15,2013-01-09 04:22:00,
2013-01-08 23:27:00,28.9,26.3,30.18,SSE,148,0.0,0.0,90,0.00,,,0.00,Wunderground v.1.15,2013-01-09 04:27:00,
2013-01-08 23:32:00,28.9,26.3,30.18,SSE,148,0.0,3.0,90,0.00,,,0.00,Wunderground v.1.15,2013-01-09 04:32:00,
2013-01-08 23:38:00,29.0,26.7,30.17,SSE,147,1.0,3.0,91,0.00,,,0.00,Wunderground v.1.15,2013-01-09 04:38:00,
2013-01-08 23:43:00,29.2,26.9,30.17,SE,146,1.0,3.0,91,0.00,,,0.00,Wunderground v.1.15,2013-01-09 04:43:00,
2013-01-08 23:49:00,28.9,26.3,30.17,SE,146,2.0,3.0,90,0.00,,,0.00,Wunderground v.1.15,2013-01-09 04:49:00,
2013-01-08 23:55:00,29.0,26.7,30.17,SE,146,2.0,3.0,91,0.00,,,0.00,Wunderground v.1.15,2013-01-09 04:55:00,